Weather History for Millinocket, ME

Change the Weather History Date:

Friday, January 11, 2013

  Actual Average Record
Temperature  
Mean Temperature 25 °F 14 °F  
Max Temperature 35 °F 24 °F 46 °F (1983)
Min Temperature 14 °F 4 °F -30 °F (1995)
Degree Days  
Heating Degree Days 40 51  
Month to date heating degree days 547 549  
Since 1 July heating degree days 3421 3714  
Cooling Degree Days 0 0  
Month to date cooling degree days 0 0  
Year to date cooling degree days 0 0  
Moisture  
Dew Point 14 °F    
Average Humidity 65    
Maximum Humidity 88    
Minimum Humidity 41    
Precipitation  
Precipitation T in 0.09 in 1.22 in (1922)
Month to date precipitation 0.02 1.30  
Year to date precipitation 0.02 1.30  
Sea Level Pressure  
Sea Level Pressure 30.43 in    
Wind  
Wind Speed 2 mph (NW)    
Max Wind Speed 9 mph    
Max Gust Speed 12 mph    
Visibility 10 miles    
Events      
T = Trace of Precipitation, MM = Missing Value Source: NWS Daily Summary

Daily Weather History Graph

Daily Weather History Graph

Search for Another Location

Airport:

Trip Planner

Search our weather history database for the weather conditions in past years. The results will help you decide how hot, cold, wet, or windy it might be!

Date:

Astronomy

Jan. 11, 2013 Rise Set
Actual Time 7:13 AM EST 4:12 PM EST
Civil Twilight 6:39 AM EST 4:46 PM EST
Nautical Twilight 6:02 AM EST 5:23 PM EST
Astronomical Twilight 5:27 AM EST 5:58 PM EST
Moon 6:41 AM EST (1/11) 4:29 PM EST (1/11)
Length of Visible Light 10h 06m
Length of Day
8h 59m
Waning Crescent, 0% of the Moon is Illuminated
Jan 11
Waning Crescent
Jan 11
New
Jan 18
First Quarter
Jan 26
Full
Feb 3
Last Quarter

Hourly Weather History & Observations

Time (EST) Temp. Windchill Dew Point Humidity Pressure Visibility Wind Dir Wind Speed Gust Speed Precip Events Conditions
12:53 AM 23.0 °F 18.4 °F 14.0 °F 68% 30.50 in 10.0 mi West 3.5 mph - N/A   Clear
1:53 AM 21.9 °F 13.4 °F 14.0 °F 72% 30.55 in 10.0 mi NW 6.9 mph - N/A   Clear
2:53 AM 21.0 °F 13.4 °F 14.0 °F 74% 30.53 in 10.0 mi WNW 5.8 mph - N/A   Clear
3:53 AM 19.9 °F - 12.9 °F 74% 30.53 in 10.0 mi Calm Calm - N/A   Clear
4:53 AM 16.0 °F - 12.0 °F 84% 30.51 in 10.0 mi Calm Calm - N/A   Clear
5:53 AM 15.1 °F - 10.9 °F 84% 30.51 in 10.0 mi Calm Calm - N/A   Clear
6:53 AM 17.1 °F 10.0 °F 12.0 °F 81% 30.52 in 10.0 mi NW 4.6 mph - N/A   Clear
7:53 AM 17.1 °F - 12.9 °F 84% 30.51 in 9.0 mi Calm Calm - N/A   Clear
8:53 AM 21.0 °F 14.6 °F 14.0 °F 74% 30.53 in 9.0 mi West 4.6 mph - N/A   Clear
9:53 AM 26.1 °F 20.5 °F 15.1 °F 63% 30.53 in 10.0 mi WNW 4.6 mph - N/A   Clear
10:53 AM 28.0 °F - 14.0 °F 56% 30.49 in 10.0 mi Calm Calm - N/A   Clear
11:53 AM 30.9 °F - 12.9 °F 47% 30.45 in 10.0 mi Calm Calm - N/A   Clear
12:53 PM 32.0 °F 28.7 °F 12.9 °F 45% 30.41 in 10.0 mi ESE 3.5 mph - N/A   Clear
1:53 PM 33.1 °F 30.0 °F 12.9 °F 43% 30.40 in 10.0 mi ESE 3.5 mph - N/A   Clear
3:53 PM 30.0 °F - 15.1 °F 54% 30.37 in 10.0 mi Calm Calm - N/A   Clear
4:53 PM 30.0 °F 24.1 °F 15.1 °F 54% 30.34 in 10.0 mi East 5.8 mph - N/A   Mostly Cloudy
5:53 PM 28.9 °F 25.2 °F 18.0 °F 64% 30.34 in 10.0 mi ENE 3.5 mph - N/A   Overcast
6:53 PM 30.0 °F - 17.1 °F 59% 30.34 in 10.0 mi Calm Calm - N/A   Overcast
7:53 PM 30.9 °F - 15.1 °F 52% 30.34 in 10.0 mi Calm Calm - N/A   Mostly Cloudy
8:53 PM 30.0 °F - 16.0 °F 56% 30.33 in 10.0 mi Calm Calm - N/A   Overcast
9:53 PM 30.9 °F 26.2 °F 15.1 °F 52% 30.32 in 10.0 mi SSE 4.6 mph - N/A   Overcast
10:53 PM 30.0 °F 26.5 °F 16.0 °F 56% 30.30 in 10.0 mi Variable 3.5 mph - N/A   Overcast
11:53 PM 30.0 °F 26.5 °F 19.0 °F 64% 30.29 in 10.0 mi Variable 3.5 mph - 0.00 in   Overcast